"startDT [UTC]","vpos","CH4 [ppm]","stdev(CH4) [ppm]","CO2 [ppm]","stdev(CO2) [ppm]","H2O_reported [%]","stdev(H2O_reported)","CavityPressure [torr]","CavityTemp [C]","OutletValve","CH4_dry [ppm]","CO2_dry [ppm]","DasTemp [C]","EtalonTemp [C]","WarmBoxTemp [C]","MPVPosition","T_ECpre [C]","T_EC1 [C]","T_EC2 [C]","p_inlet [hPa]","p_in [hPa]","p_out [hPa]","T_inlet [C]","RH_inlet [%]","dwpt_inlet [C]","T_vent [C]","RH_vent [%]","dwpt_vent [C]","flow_vent [l min-1]","flow_inlet [l min-1]","dwpt_sample [C]","T_room [C]"
2016-05-20 00:00:00,0.0,1.91113,0.00047,405.845,0.033,0.3425,0.0015,139.997,45.000,31757.06565,1.91765,407.533,37.938,45.069,45.000,0.00,0.09,-272.76,-272.84,-15,532,-945,27.4,6.8,-11.8,26.9,7.1,-11.6,5.73,1.79,-6.7,31.7
2016-05-20 00:01:00,0.0,1.91138,0.00041,405.830,0.036,0.3427,0.0017,140.001,45.000,31756.17102,1.91790,407.520,37.938,45.069,45.000,0.00,0.09,-272.77,-272.83,-15,532,-945,27.4,6.8,-11.8,26.9,7.1,-11.6,5.73,1.99,-6.7,31.8
2016-05-20 00:02:00,0.0,1.91115,0.00042,405.817,0.035,0.3430,0.0022,140.000,45.000,31758.91835,1.91763,407.507,37.938,45.069,45.000,0.00,0.09,-272.77,-272.84,-15,532,-945,27.4,6.8,-11.8,26.9,7.1,-11.6,5.73,1.77,-6.7,31.8
2016-05-20 00:03:00,0.0,1.91099,0.00032,405.830,0.038,0.3428,0.0014,140.001,45.000,31760.87303,1.91752,407.519,37.937,45.069,45.000,0.00,0.09,-272.77,-272.82,-15,532,-945,27.4,6.8,-11.8,26.9,7.1,-11.6,5.73,2.01,-6.6,31.8
2016-05-20 00:04:00,0.0,1.91102,0.00046,405.850,0.030,0.3436,0.0011,140.001,45.000,31761.06416,1.91754,407.543,37.938,45.069,45.000,0.00,0.09,-272.76,-272.83,-14,532,-945,27.4,6.8,-11.8,26.9,7.1,-11.6,5.73,1.75,-6.7,31.8
2016-05-20 00:05:00,0.0,1.91106,0.00051,405.814,0.022,0.3450,0.0015,140.000,45.000,31760.53906,1.91760,407.514,37.938,45.069,45.000,0.00,0.09,-272.78,-272.83,-16,532,-945,27.4,6.8,-11.8,26.9,7.1,-11.6,5.73,2.03,-6.7,31.8
2016-05-20 00:06:00,0.0,1.91122,0.00029,405.807,0.024,0.3454,0.0016,139.999,45.000,31760.21335,1.91776,407.509,37.910,45.069,45.000,0.00,0.09,-272.76,-272.84,-14,532,-945,27.4,6.8,-11.8,26.9,7.1,-11.6,5.73,1.74,-6.7,31.8
2016-05-20 00:07:00,0.0,1.91105,0.00040,405.805,0.029,0.3437,0.0017,140.001,45.000,31762.31916,1.91762,407.499,37.878,45.069,45.000,0.00,0.09,-272.77,-272.83,-16,532,-945,27.4,6.8,-11.8,26.9,7.1,-11.6,5.73,2.04,-6.6,31.8
2016-05-20 00:08:00,0.0,1.91113,0.00030,405.800,0.037,0.3444,0.0018,139.997,45.000,31759.50870,1.91766,407.497,37.875,45.069,45.001,0.00,0.09,-272.77,-272.84,-14,532,-945,27.4,6.8,-11.8,26.9,7.1,-11.6,5.73,1.72,-6.6,31.8
2016-05-20 00:09:00,0.0,1.91083,0.00036,405.808,0.030,0.3456,0.0020,139.998,45.000,31761.96928,1.91739,407.511,37.887,45.069,45.000,0.00,0.09,-272.77,-272.83,-15,532,-945,27.4,6.9,-11.7,27.0,7.1,-11.5,5.73,2.06,-6.6,31.8
2016-05-20 00:10:00,0.0,1.91111,0.00046,405.808,0.043,0.3463,0.0021,140.000,45.000,31762.92838,1.91770,407.514,37.906,45.069,45.000,0.00,0.09,-272.76,-272.83,-15,532,-945,27.4,6.9,-11.7,27.0,7.2,-11.5,5.73,1.71,-6.6,31.8
2016-05-20 00:11:00,0.0,1.91102,0.00033,405.821,0.037,0.3429,0.0019,139.997,45.000,31763.05758,1.91751,407.512,37.938,45.069,45.000,0.00,0.09,-272.77,-272.83,-15,532,-945,27.4,6.8,-11.8,27.0,7.1,-11.6,5.73,2.06,-6.6,31.8
2016-05-20 00:12:00,0.0,1.91092,0.00030,405.784,0.042,0.3441,0.0016,139.998,45.000,31764.32935,1.91744,407.479,37.943,45.069,45.000,0.00,0.09,-272.77,-272.84,-15,533,-945,27.4,6.8,-11.8,27.0,7.1,-11.6,5.73,1.70,-6.6,31.9
2016-05-20 00:13:00,0.0,1.91130,0.00044,405.800,0.027,0.3435,0.0019,139.999,45.000,31763.97052,1.91784,407.493,37.940,45.069,45.000,0.00,0.09,-272.77,-272.83,-14,532,-945,27.4,6.8,-11.8,27.0,7.1,-11.6,5.73,2.07,-6.6,31.9
2016-05-20 00:14:00,0.0,1.91106,0.00042,405.828,0.038,0.3433,0.0017,139.999,45.000,31762.85352,1.91756,407.519,37.942,45.069,45.000,0.00,0.09,-272.76,-272.83,-16,532,-945,27.4,6.8,-11.8,27.0,7.1,-11.6,5.73,1.69,-6.6,31.9
2016-05-20 00:15:00,0.0,1.91094,0.00035,405.859,0.031,0.3444,0.0017,140.000,45.000,31761.38381,1.91750,407.556,37.939,45.069,45.000,0.00,0.09,-272.78,-272.83,-14,532,-945,27.4,6.8,-11.8,27.0,7.1,-11.5,5.73,2.08,-6.6,31.8
2016-05-20 00:16:00,0.0,1.91108,0.00035,405.842,0.021,0.3446,0.0014,140.000,45.000,31762.61373,1.91762,407.540,37.953,45.069,45.000,0.00,0.09,-272.77,-272.84,-16,532,-945,27.4,6.8,-11.8,27.0,7.1,-11.5,5.73,1.69,-6.6,31.9
2016-05-20 00:17:00,0.0,1.91095,0.00029,405.845,0.033,0.3448,0.0021,140.000,45.000,31763.11775,1.91751,407.544,37.960,45.069,45.000,0.00,0.09,-272.77,-272.83,-14,533,-945,27.4,6.8,-11.7,27.0,7.1,-11.5,5.73,2.08,-6.6,31.8
2016-05-20 00:18:00,0.0,1.91115,0.00030,405.844,0.028,0.3451,0.0017,140.003,45.000,31764.77473,1.91768,407.546,37.999,45.069,45.000,0.00,0.09,-272.76,-272.83,-16,532,-945,27.4,6.8,-11.8,27.0,7.1,-11.5,5.73,1.69,-6.6,31.8
2016-05-20 00:19:00,0.0,1.91132,0.00040,405.843,0.033,0.3460,0.0026,139.999,45.000,31761.28811,1.91785,407.547,38.002,45.069,45.000,0.00,0.09,-272.78,-272.83,-14,533,-945,27.4,6.8,-11.7,27.0,7.1,-11.5,5.73,2.07,-6.6,31.9
2016-05-20 00:20:00,0.0,1.91126,0.00029,405.882,0.027,0.3458,0.0012,139.999,45.000,31762.12732,1.91786,407.585,38.019,45.069,45.000,0.00,0.09,-272.77,-272.83,-15,532,-945,27.4,6.8,-11.7,27.0,7.1,-11.5,5.73,1.69,-6.6,31.9
2016-05-20 00:21:00,0.0,1.91131,0.00030,405.896,0.035,0.3452,0.0015,140.001,45.000,31762.85502,1.91787,407.598,38.045,45.069,45.000,0.00,0.09,-272.77,-272.83,-15,533,-945,27.4,6.8,-11.8,27.0,7.1,-11.5,5.73,2.07,-6.6,31.9
2016-05-20 00:22:00,0.0,1.91149,0.00034,405.850,0.039,0.3449,0.0014,139.999,45.000,31762.64341,1.91803,407.551,38.032,45.069,45.000,0.00,0.09,-272.77,-272.84,-15,532,-945,27.4,6.8,-11.8,27.0,7.1,-11.5,5.73,1.71,-6.6,31.8
2016-05-20 00:23:00,0.0,1.91110,0.00036,405.832,0.020,0.3470,0.0013,140.002,45.000,31767.35511,1.91770,407.542,38.009,45.069,45.000,0.00,0.09,-272.77,-272.84,-15,533,-945,27.5,6.8,-11.7,27.0,7.1,-11.5,5.73,2.05,-6.6,31.9
2016-05-20 00:24:00,0.0,1.91119,0.00026,405.869,0.039,0.3459,0.0013,139.999,45.000,31766.81714,1.91776,407.573,38.003,45.069,45.000,0.00,0.09,-272.76,-272.83,-14,532,-945,27.5,6.8,-11.7,27.0,7.1,-11.5,5.73,1.73,-6.6,31.9
2016-05-20 00:25:00,0.0,1.91092,0.00035,405.850,0.039,0.3492,0.0019,139.998,45.000,31768.85335,1.91757,407.573,38.003,45.069,45.000,0.00,0.09,-272.77,-272.84,-16,533,-945,27.5,6.9,-11.6,27.0,7.2,-11.4,5.73,2.03,-6.6,31.9
2016-05-20 00:26:00,0.0,1.91100,0.00030,405.850,0.043,0.3469,0.0016,139.999,45.000,31769.55523,1.91758,407.560,38.004,45.069,45.000,0.00,0.09,-272.77,-272.83,-14,533,-945,27.5,6.8,-11.7,27.0,7.2,-11.5,5.73,1.74,-6.6,31.9
2016-05-20 00:27:00,0.0,1.91092,0.00032,405.851,0.037,0.3450,0.0018,139.999,45.000,31770.46689,1.91747,407.551,38.012,45.069,45.000,0.00,0.09,-272.77,-272.83,-16,533,-945,27.5,6.8,-11.7,27.0,7.1,-11.5,5.73,2.00,-6.6,31.9
2016-05-20 00:28:00,0.0,1.91095,0.00034,405.861,0.025,0.3471,0.0017,140.000,45.000,31769.92673,1.91755,407.572,38.003,45.069,45.000,0.00,0.09,-272.77,-272.83,-14,533,-945,27.5,6.8,-11.7,27.0,7.1,-11.5,5.73,1.78,-6.6,31.9
2016-05-20 00:29:00,0.0,1.91094,0.00044,405.883,0.044,0.3483,0.0014,139.998,45.000,31769.09877,1.91756,407.599,38.005,45.069,45.000,0.00,0.09,-272.77,-272.84,-16,532,-945,27.5,6.9,-11.6,27.0,7.2,-11.4,5.73,1.96,-6.6,31.9
2016-05-20 00:30:00,0.0,1.91104,0.00039,405.891,0.029,0.3490,0.0018,139.999,45.000,31770.65349,1.91767,407.610,38.025,45.069,45.000,0.00,0.09,-272.77,-272.83,-14,533,-945,27.5,6.9,-11.6,27.0,7.2,-11.4,5.73,1.82,-6.6,31.9
2016-05-20 00:31:00,0.0,1.91096,0.00036,405.903,0.044,0.3482,0.0017,140.000,45.000,31771.98384,1.91757,407.622,38.049,45.069,45.000,0.00,0.09,-272.76,-272.83,-16,532,-945,27.5,6.9,-11.6,27.0,7.2,-11.4,5.73,1.92,-6.6,31.9
2016-05-20 00:32:00,0.0,1.91089,0.00036,405.849,0.033,0.3477,0.0015,139.999,45.000,31772.49662,1.91749,407.562,38.061,45.069,45.000,0.00,0.09,-272.77,-272.83,-15,533,-945,27.5,6.8,-11.7,27.0,7.2,-11.4,5.73,1.86,-6.6,32.0
2016-05-20 00:33:00,0.0,1.91070,0.00031,405.843,0.030,0.3493,0.0022,140.000,45.000,31774.60867,1.91734,407.563,38.063,45.069,45.000,0.00,0.09,-272.76,-272.84,-15,533,-945,27.5,6.9,-11.6,27.0,7.2,-11.4,5.73,1.88,-6.6,32.0
2016-05-20 00:34:00,0.0,1.91063,0.00033,405.849,0.027,0.3482,0.0017,140.000,45.000,31773.02146,1.91724,407.567,38.062,45.069,45.000,0.00,0.09,-272.77,-272.82,-15,533,-945,27.5,6.8,-11.6,27.0,7.1,-11.5,5.73,1.91,-6.6,32.0
2016-05-20 00:35:00,0.0,1.91066,0.00038,405.856,0.041,0.3481,0.0020,140.001,45.000,31775.18498,1.91727,407.572,38.063,45.069,45.000,0.00,0.09,-272.77,-272.83,-15,532,-945,27.5,6.9,-11.6,27.1,7.1,-11.4,5.73,1.82,-6.6,31.9
2016-05-20 00:36:00,0.0,1.91092,0.00044,405.853,0.036,0.3492,0.0016,140.002,45.000,31774.96198,1.91754,407.573,38.063,45.069,45.000,0.00,0.09,-272.77,-272.83,-16,533,-945,27.5,6.9,-11.6,27.1,7.2,-11.4,5.73,1.97,-6.6,31.9
2016-05-20 00:37:00,0.0,1.91084,0.00047,405.847,0.038,0.3495,0.0016,140.000,45.000,31774.27126,1.91748,407.571,38.063,45.069,45.000,0.00,0.09,-272.76,-272.84,-15,533,-945,27.6,6.9,-11.6,27.1,7.2,-11.4,5.73,1.77,-6.6,32.0
2016-05-20 00:38:00,0.0,1.91071,0.00035,405.852,0.033,0.3505,0.0024,140.001,45.000,31775.68121,1.91737,407.580,38.063,45.069,45.000,0.00,0.09,-272.78,-272.83,-16,533,-945,27.5,6.9,-11.6,27.1,7.2,-11.4,5.73,2.01,-6.5,32.0
2016-05-20 00:39:00,0.0,1.91081,0.00036,405.825,0.030,0.3526,0.0023,139.997,45.000,31774.90088,1.91751,407.563,38.063,45.069,45.000,0.00,0.09,-272.77,-272.84,-14,533,-945,27.6,6.9,-11.5,27.1,7.2,-11.3,5.73,1.73,-6.6,32.0
2016-05-20 00:40:00,0.0,1.91072,0.00035,405.816,0.037,0.3498,0.0013,139.999,45.000,31774.85387,1.91737,407.541,38.062,45.069,45.000,0.00,0.09,-272.77,-272.82,-16,533,-945,27.6,6.9,-11.6,27.1,7.2,-11.3,5.73,2.05,-6.5,32.0
2016-05-20 00:41:00,0.0,1.91075,0.00032,405.766,0.045,0.3485,0.0011,140.000,45.000,31777.19332,1.91737,407.485,38.083,45.069,45.000,0.00,0.09,-272.77,-272.83,-14,533,-945,27.6,6.8,-11.6,27.1,7.1,-11.4,5.73,1.70,-6.5,32.0
2016-05-20 00:42:00,0.0,1.91064,0.00034,405.761,0.033,0.3508,0.0017,139.998,45.000,31777.79832,1.91730,407.488,38.119,45.069,45.000,0.00,0.09,-272.78,-272.84,-16,533,-945,27.6,6.9,-11.5,27.1,7.2,-11.3,5.73,2.07,-6.5,32.0
2016-05-20 00:43:00,0.0,1.91092,0.00029,405.788,0.038,0.3511,0.0020,139.997,45.000,31776.64904,1.91755,407.518,38.129,45.069,45.000,0.00,0.09,-272.77,-272.83,-14,533,-945,27.6,6.9,-11.5,27.1,7.2,-11.3,5.73,1.68,-6.5,32.0
2016-05-20 00:44:00,0.0,1.91087,0.00038,405.775,0.034,0.3517,0.0022,140.002,45.000,31777.57521,1.91756,407.509,38.172,45.069,45.000,0.00,0.09,-272.77,-272.83,-16,533,-946,27.6,6.9,-11.5,27.1,7.2,-11.3,5.73,2.07,-6.5,32.0
2016-05-20 00:45:00,0.0,1.91067,0.00036,405.784,0.030,0.3550,0.0026,140.000,45.000,31779.65079,1.91742,407.533,38.188,45.069,45.000,0.00,0.09,-272.77,-272.83,-15,533,-946,27.6,6.9,-11.4,27.1,7.2,-11.2,5.73,1.70,-6.5,32.0
2016-05-20 00:46:00,0.0,1.91071,0.00032,405.762,0.035,0.3548,0.0016,139.999,45.000,31780.17841,1.91743,407.512,38.201,45.069,45.000,0.00,0.09,-272.77,-272.83,-15,533,-945,27.6,7.0,-11.4,27.1,7.3,-11.2,5.73,2.04,-6.5,32.1
2016-05-20 00:47:00,0.0,1.91108,0.00031,405.777,0.029,0.3533,0.0020,140.003,45.000,31780.88028,1.91780,407.518,38.215,45.069,45.000,0.00,0.09,-272.76,-272.83,-15,533,-946,27.6,6.9,-11.4,27.2,7.2,-11.2,5.73,1.73,-6.5,32.0
2016-05-20 00:48:00,0.0,1.91107,0.00047,405.751,0.036,0.3559,0.0021,140.000,45.000,31779.93814,1.91783,407.506,38.195,45.069,45.000,0.00,0.09,-272.77,-272.83,-15,533,-946,27.6,7.0,-11.3,27.2,7.3,-11.2,5.73,1.99,-6.5,32.0
2016-05-20 00:49:00,0.0,1.91094,0.00038,405.772,0.035,0.3552,0.0023,140.000,45.000,31780.55807,1.91771,407.522,38.198,45.069,45.000,0.00,0.09,-272.77,-272.84,-15,533,-946,27.6,6.9,-11.4,27.1,7.3,-11.2,5.73,1.80,-6.5,32.0
2016-05-20 00:50:00,0.0,1.91056,0.00036,405.754,0.027,0.3575,0.0019,139.996,45.000,31783.30339,1.91734,407.515,38.194,45.069,45.000,0.00,0.09,-272.76,-272.83,-15,533,-945,27.6,7.0,-11.3,27.2,7.3,-11.1,5.73,1.92,-6.5,32.1
2016-05-20 00:51:00,0.0,1.91061,0.00033,405.777,0.030,0.3572,0.0028,139.998,45.000,31783.02695,1.91738,407.540,38.188,45.069,45.000,0.00,0.09,-272.77,-272.83,-16,533,-946,27.6,7.0,-11.3,27.2,7.3,-11.1,5.73,1.87,-6.5,32.0
2016-05-20 00:52:00,0.0,1.91098,0.00046,405.795,0.031,0.3540,0.0017,140.000,45.000,31781.18547,1.91769,407.539,38.194,45.069,45.000,0.00,0.09,-272.77,-272.84,-15,533,-946,27.6,6.9,-11.4,27.2,7.2,-11.2,5.73,1.85,-6.5,32.1
2016-05-20 00:53:00,0.0,1.91088,0.00043,405.793,0.032,0.3551,0.0024,139.999,45.000,31781.36253,1.91765,407.543,38.239,45.069,45.000,0.00,0.09,-272.78,-272.83,-16,533,-945,27.6,6.9,-11.4,27.2,7.2,-11.2,5.73,1.94,-6.5,32.0
2016-05-20 00:54:00,0.0,1.91115,0.00034,405.825,0.028,0.3526,0.0024,139.999,45.000,31780.38006,1.91783,407.564,38.244,45.069,45.000,0.00,0.09,-272.76,-272.83,-14,533,-945,27.6,6.9,-11.4,27.2,7.2,-11.3,5.73,1.78,-6.5,32.1
2016-05-20 00:55:00,0.0,1.91091,0.00043,405.792,0.032,0.3545,0.0017,140.001,45.000,31781.86588,1.91765,407.539,38.241,45.069,45.000,0.00,0.09,-272.78,-272.83,-16,533,-946,27.6,6.9,-11.4,27.2,7.2,-11.2,5.73,2.01,-6.5,32.1
2016-05-20 00:56:00,0.0,1.91097,0.00032,405.800,0.030,0.3557,0.0018,140.000,45.000,31781.97320,1.91773,407.554,38.250,45.069,45.000,0.00,0.09,-272.77,-272.84,-14,533,-945,27.7,6.9,-11.4,27.2,7.3,-11.2,5.73,1.72,-6.5,32.1
2016-05-20 00:57:00,0.0,1.91101,0.00031,405.780,0.040,0.3576,0.0021,140.001,45.000,31781.59961,1.91779,407.541,38.248,45.069,45.000,0.00,0.09,-272.77,-272.82,-16,533,-945,27.7,7.0,-11.3,27.2,7.3,-11.1,5.73,2.05,-6.5,32.1
2016-05-20 00:58:00,0.0,1.91104,0.00040,405.784,0.022,0.3579,0.0025,139.997,45.000,31780.89288,1.91786,407.550,38.219,45.069,45.000,0.00,0.09,-272.76,-272.83,-14,533,-945,27.7,7.0,-11.3,27.2,7.3,-11.1,5.73,1.69,-6.5,32.1
2016-05-20 00:59:00,0.0,1.91096,0.00040,405.760,0.029,0.3567,0.0017,140.001,45.000,31782.94121,1.91774,407.519,38.195,45.069,45.000,0.00,0.09,-272.77,-272.83,-16,533,-945,27.7,7.0,-11.3,27.2,7.3,-11.1,5.73,2.07,-6.5,32.1
2016-05-20 01:00:00,0.0,1.91105,0.00041,405.755,0.042,0.3563,0.0015,139.999,45.000,31783.50021,1.91782,407.511,38.224,45.069,45.000,0.00,0.09,-272.77,-272.83,-14,533,-946,27.7,6.9,-11.3,27.2,7.3,-11.1,5.73,1.70,-6.5,32.1
2016-05-20 01:01:00,0.0,1.91094,0.00033,405.756,0.045,0.3562,0.0017,139.998,45.000,31784.59320,1.91768,407.510,38.250,45.069,45.001,0.00,0.09,-272.77,-272.83,-16,533,-946,27.7,6.9,-11.3,27.2,7.3,-11.1,5.73,2.04,-6.4,32.1
2016-05-20 01:02:00,0.0,1.91096,0.00027,405.775,0.031,0.3567,0.0017,140.003,45.000,31786.73572,1.91772,407.533,38.274,45.069,45.000,0.00,0.09,-272.77,-272.84,-14,533,-946,27.7,6.9,-11.3,27.2,7.3,-11.1,5.73,1.75,-6.4,32.1
2016-05-20 01:03:00,0.0,1.91103,0.00032,405.774,0.031,0.3578,0.0017,139.998,45.000,31786.55248,1.91787,407.539,38.313,45.069,45.000,0.00,0.09,-272.76,-272.84,-16,533,-946,27.7,7.0,-11.3,27.2,7.3,-11.1,5.73,1.97,-6.4,32.1
2016-05-20 01:04:00,0.0,1.91089,0.00041,405.778,0.035,0.3571,0.0022,140.001,45.000,31787.89831,1.91766,407.538,38.344,45.069,45.000,0.00,0.09,-272.76,-272.83,-15,533,-946,27.7,7.0,-11.3,27.2,7.3,-11.1,5.73,1.83,-6.4,32.1
2016-05-20 01:05:00,0.0,1.91096,0.00034,405.778,0.022,0.3595,0.0019,139.999,45.000,31787.47296,1.91779,407.550,38.334,45.069,45.000,0.00,0.09,-272.76,-272.84,-16,533,-946,27.7,7.0,-11.2,27.2,7.3,-11.1,5.73,1.88,-6.4,32.1
2016-05-20 01:06:00,0.0,1.91112,0.00044,405.766,0.020,0.3590,0.0024,140.000,45.000,31786.95364,1.91791,407.537,38.309,45.069,45.000,0.00,0.09,-272.78,-272.83,-15,533,-946,27.7,7.0,-11.3,27.3,7.3,-11.0,5.73,1.92,-6.4,32.2
2016-05-20 01:07:00,0.0,1.91122,0.00034,405.770,0.029,0.3600,0.0017,140.003,45.000,31786.98864,1.91806,407.545,38.287,45.069,45.000,0.00,0.09,-272.77,-272.83,-16,533,-946,27.7,7.0,-11.2,27.3,7.3,-11.0,5.73,1.78,-6.4,32.2
2016-05-20 01:08:00,0.0,1.91102,0.00046,405.760,0.034,0.3598,0.0018,140.000,45.000,31787.37202,1.91787,407.532,38.286,45.069,45.000,0.00,0.09,-272.77,-272.82,-15,534,-946,27.7,7.0,-11.2,27.3,7.3,-11.0,5.73,2.02,-6.4,32.2
2016-05-20 01:09:00,0.0,1.91103,0.00038,405.772,0.039,0.3588,0.0019,140.000,45.000,31787.35471,1.91784,407.541,38.310,45.069,45.001,0.00,0.09,-272.77,-272.84,-15,533,-945,27.7,6.9,-11.3,27.3,7.3,-11.0,5.73,1.70,-6.4,32.2
2016-05-20 01:10:00,0.0,1.91141,0.00045,405.782,0.028,0.3577,0.0021,139.997,45.000,31785.15111,1.91821,407.544,38.313,45.069,45.000,0.00,0.09,-272.78,-272.83,-15,534,-946,27.8,6.9,-11.3,27.3,7.3,-11.1,5.73,2.06,-6.4,32.2
2016-05-20 01:11:00,0.0,1.91120,0.00028,405.794,0.023,0.3614,0.0020,140.000,45.000,31787.12357,1.91808,407.575,38.333,45.069,45.000,0.00,0.09,-272.76,-272.83,-15,533,-946,27.8,7.0,-11.2,27.3,7.3,-11.0,5.73,1.68,-6.4,32.2
2016-05-20 01:12:00,0.0,1.91123,0.00040,405.756,0.037,0.3628,0.0015,140.002,45.000,31788.24472,1.91808,407.545,38.371,45.069,45.000,0.00,0.09,-272.77,-272.83,-15,534,-945,27.8,7.0,-11.1,27.3,7.3,-10.9,5.73,2.05,-6.4,32.2
2016-05-20 01:13:00,0.0,1.91111,0.00024,405.760,0.040,0.3609,0.0021,140.001,45.000,31788.20427,1.91799,407.539,38.375,45.069,45.000,0.00,0.09,-272.77,-272.83,-15,533,-946,27.8,7.0,-11.2,27.3,7.3,-11.0,5.73,1.73,-6.4,32.2
2016-05-20 01:14:00,0.0,1.91112,0.00029,405.749,0.037,0.3632,0.0022,140.002,45.000,31789.08414,1.91802,407.540,38.387,45.069,45.000,0.00,0.09,-272.77,-272.83,-15,534,-946,27.8,7.0,-11.1,27.3,7.3,-10.9,5.73,1.97,-6.4,32.2
2016-05-20 01:15:00,0.0,1.91134,0.00035,405.738,0.034,0.3613,0.0026,139.999,45.000,31787.40453,1.91821,407.519,38.397,45.069,45.000,0.00,0.09,-272.77,-272.83,-15,533,-946,27.8,7.0,-11.2,27.3,7.3,-10.9,5.73,1.84,-6.4,32.2
2016-05-20 01:16:00,0.0,1.91124,0.00029,405.747,0.031,0.3622,0.0034,139.999,45.000,31787.31805,1.91813,407.533,38.395,45.069,45.000,0.00,0.09,-272.77,-272.84,-16,534,-945,27.8,7.0,-11.1,27.3,7.3,-11.0,5.73,1.86,-6.4,32.3
2016-05-20 01:17:00,0.0,1.91114,0.00040,405.723,0.029,0.3693,0.0028,140.000,45.000,31789.40361,1.91814,407.543,38.390,45.069,45.000,0.00,0.09,-272.77,-272.83,-15,533,-945,27.8,7.2,-10.9,27.3,7.4,-10.8,5.73,1.95,-6.4,32.3
2016-05-20 01:18:00,0.0,1.91111,0.00040,405.735,0.035,0.3728,0.0027,140.001,45.000,31789.92231,1.91821,407.572,38.377,45.069,45.000,0.00,0.09,-272.76,-272.83,-16,534,-945,27.8,7.2,-10.8,27.4,7.5,-10.6,5.73,1.75,-6.4,32.3
2016-05-20 01:19:00,0.0,1.91107,0.00036,405.737,0.026,0.3667,0.0026,140.003,45.000,31791.39122,1.91802,407.547,38.376,45.069,45.000,0.00,0.09,-272.77,-272.83,-15,533,-945,27.8,7.1,-11.0,27.4,7.4,-10.7,5.73,2.04,-6.4,32.3
2016-05-20 01:20:00,0.0,1.91112,0.00045,405.716,0.032,0.3655,0.0026,140.001,45.000,31791.09112,1.91809,407.517,38.375,45.069,45.000,0.00,0.09,-272.77,-272.84,-16,534,-946,27.8,7.1,-11.0,27.4,7.4,-10.8,5.73,1.69,-6.4,32.3
2016-05-20 01:21:00,0.0,1.91112,0.00036,405.752,0.029,0.3666,0.0032,139.999,45.000,31790.76948,1.91810,407.561,38.374,45.069,45.000,0.00,0.09,-272.77,-272.82,-15,534,-945,27.8,7.1,-11.0,27.4,7.4,-10.8,5.73,2.06,-6.4,32.3
2016-05-20 01:22:00,0.0,1.91109,0.00034,405.747,0.039,0.3679,0.0024,140.001,45.000,31792.15389,1.91808,407.560,38.375,45.069,45.001,0.00,0.09,-272.77,-272.83,-16,534,-946,27.8,7.1,-10.9,27.4,7.4,-10.8,5.73,1.71,-6.3,32.3
2016-05-20 01:23:00,0.0,1.91079,0.00034,405.770,0.037,0.3604,0.0054,140.001,45.000,31794.32032,1.91765,407.546,38.375,45.069,45.000,0.00,0.09,-272.77,-272.84,-15,534,-945,27.9,7.0,-11.2,27.4,7.4,-10.8,5.73,2.00,-6.3,32.3
2016-05-20 01:24:00,0.0,1.91109,0.00037,405.797,0.031,0.3586,0.0020,139.999,45.000,31794.69761,1.91788,407.564,38.376,45.069,45.001,0.00,0.09,-272.77,-272.83,-16,534,-946,27.8,6.9,-11.3,27.4,7.2,-11.1,5.73,1.80,-6.3,32.3
2016-05-20 01:25:00,0.0,1.91108,0.00039,405.784,0.030,0.3601,0.0015,140.001,45.000,31796.34756,1.91792,407.560,38.424,45.069,45.000,0.00,0.09,-272.76,-272.83,-15,534,-946,27.9,6.9,-11.2,27.4,7.2,-11.0,5.73,1.88,-6.3,32.3
2016-05-20 01:26:00,0.0,1.91133,0.00030,405.784,0.037,0.3617,0.0025,139.999,45.000,31794.84439,1.91821,407.567,38.439,45.069,45.000,0.00,0.09,-272.77,-272.83,-16,534,-946,27.9,7.0,-11.2,27.4,7.3,-11.0,5.73,1.93,-6.3,32.4
2016-05-20 01:27:00,0.0,1.91128,0.00036,405.784,0.032,0.3638,0.0015,140.000,45.000,31794.22079,1.91817,407.578,38.462,45.069,45.000,0.00,0.09,-272.76,-272.83,-15,534,-946,27.9,7.0,-11.1,27.4,7.3,-10.9,5.73,1.75,-6.3,32.4
2016-05-20 01:28:00,0.0,1.91135,0.00046,405.796,0.042,0.3609,0.0022,140.002,45.000,31793.33593,1.91823,407.576,38.488,45.069,45.000,0.00,0.09,-272.77,-272.82,-16,534,-946,27.9,6.9,-11.2,27.4,7.3,-11.0,5.73,2.04,-6.3,32.4
2016-05-20 01:29:00,0.0,1.91152,0.00040,405.806,0.032,0.3576,0.0024,139.999,45.000,31793.19352,1.91828,407.568,38.501,45.069,45.000,0.00,0.09,-272.77,-272.84,-15,534,-946,27.9,6.9,-11.3,27.4,7.2,-11.0,5.73,1.69,-6.3,32.4
2016-05-20 01:30:00,0.0,1.91124,0.00036,405.787,0.032,0.3564,0.0021,139.998,45.000,31794.78668,1.91803,407.544,38.497,45.069,45.000,0.00,0.09,-272.77,-272.83,-16,534,-946,27.9,6.9,-11.3,27.4,7.2,-11.1,5.73,2.06,-6.3,32.4
2016-05-20 01:31:00,0.0,1.91147,0.00043,405.821,0.038,0.3583,0.0024,140.000,45.000,31794.09747,1.91829,407.586,38.500,45.069,45.000,0.00,0.09,-272.76,-272.83,-15,534,-946,27.9,6.9,-11.3,27.4,7.2,-11.1,5.73,1.72,-6.3,32.4
2016-05-20 01:32:00,0.0,1.91126,0.00036,405.810,0.045,0.3620,0.0021,139.999,45.000,31794.83596,1.91811,407.595,38.500,45.069,45.000,0.00,0.09,-272.77,-272.83,-16,534,-946,27.9,7.0,-11.1,27.4,7.2,-11.0,5.73,1.97,-6.3,32.4
2016-05-20 01:33:00,0.0,1.91138,0.00037,405.825,0.030,0.3598,0.0015,139.998,45.000,31796.40556,1.91824,407.600,38.508,45.069,45.000,0.00,0.09,-272.78,-272.83,-15,534,-946,27.9,6.9,-11.2,27.5,7.2,-11.0,5.73,1.84,-6.3,32.4
2016-05-20 01:34:00,0.0,1.91149,0.00039,405.824,0.026,0.3580,0.0016,140.000,45.000,31796.56395,1.91829,407.588,38.529,45.069,45.000,0.00,0.09,-272.76,-272.83,-16,534,-946,28.0,6.9,-11.3,27.5,7.2,-11.1,5.73,1.83,-6.3,32.4
2016-05-20 01:35:00,0.0,1.91129,0.00040,405.825,0.042,0.3600,0.0019,140.002,45.000,31799.75600,1.91815,407.600,38.520,45.069,45.000,0.00,0.09,-272.77,-272.82,-15,534,-946,28.0,6.9,-11.2,27.5,7.2,-11.0,5.73,1.98,-6.3,32.4
2016-05-20 01:36:00,0.0,1.91100,0.00040,405.806,0.037,0.3621,0.0039,140.000,45.000,31801.28017,1.91788,407.592,38.504,45.069,45.000,0.00,0.09,-272.77,-272.83,-16,534,-946,28.0,7.0,-11.1,27.5,7.2,-11.0,5.73,1.72,-6.3,32.4
2016-05-20 01:37:00,0.0,1.91106,0.00036,405.804,0.030,0.3617,0.0028,140.000,45.000,31800.81617,1.91792,407.587,38.499,45.069,45.000,0.00,0.09,-272.77,-272.83,-15,534,-946,28.0,6.9,-11.2,27.5,7.3,-10.9,5.73,2.06,-6.3,32.5
2016-05-20 01:38:00,0.0,1.91108,0.00035,405.790,0.022,0.3660,0.0029,140.002,45.000,31802.54476,1.91806,407.595,38.493,45.069,45.001,0.00,0.09,-272.76,-272.83,-16,534,-946,28.0,7.0,-11.0,27.5,7.3,-10.9,5.73,1.69,-6.3,32.5
2016-05-20 01:39:00,0.0,1.91089,0.00038,405.806,0.033,0.3608,0.0024,140.000,45.000,31803.68552,1.91773,407.586,38.489,45.069,45.001,0.00,0.09,-272.77,-272.84,-15,534,-946,28.0,6.9,-11.2,27.5,7.3,-10.9,5.73,2.02,-6.2,32.4
2016-05-20 01:40:00,0.0,1.91093,0.00022,405.823,0.040,0.3588,0.0034,140.001,45.000,31803.06227,1.91775,407.590,38.499,45.069,45.001,0.00,0.09,-272.76,-272.83,-16,534,-946,28.0,6.9,-11.3,27.5,7.2,-11.0,5.73,1.79,-6.2,32.4
2016-05-20 01:41:00,0.0,1.91094,0.00030,405.786,0.031,0.3623,0.0026,140.002,45.000,31806.60086,1.91782,407.574,38.500,45.070,45.001,0.00,0.09,-272.76,-272.83,-15,534,-946,28.0,6.9,-11.1,27.5,7.2,-11.0,5.73,1.88,-6.2,32.5
2016-05-20 01:42:00,0.0,1.91097,0.00036,405.797,0.033,0.3615,0.0011,139.999,45.000,31806.71687,1.91784,407.578,38.500,45.070,45.001,0.00,0.09,-272.77,-272.83,-16,535,-946,28.0,6.9,-11.2,27.6,7.2,-11.0,5.73,1.94,-6.2,32.4
2016-05-20 01:43:00,0.0,1.91089,0.00042,405.778,0.026,0.3638,0.0030,140.002,45.000,31807.96119,1.91781,407.572,38.519,45.070,45.001,0.00,0.09,-272.77,-272.84,-15,534,-946,28.0,6.9,-11.1,27.6,7.2,-10.9,5.73,1.73,-6.2,32.5
2016-05-20 01:44:00,0.0,1.91104,0.00031,405.776,0.024,0.3634,0.0023,139.999,45.000,31806.76980,1.91793,407.567,38.537,45.069,45.001,0.00,0.09,-272.76,-272.83,-16,535,-946,28.0,6.9,-11.1,27.6,7.2,-10.9,5.73,2.05,-6.2,32.5
2016-05-20 01:45:00,0.0,1.91114,0.00041,405.791,0.029,0.3621,0.0019,139.999,45.000,31807.59828,1.91802,407.575,38.546,45.069,45.000,0.00,0.09,-272.76,-272.83,-16,534,-946,28.1,6.9,-11.2,27.6,7.2,-10.9,5.73,1.69,-6.2,32.5